Tracking 33744 objects as of 13-Apr-2026
HD Live streaming from Space Station
objects crossing your sky now

CZ-2F DEB

Track CZ-2F DEB now!
10-day predictions


NORAD ID: 67692
Int'l Code: 2026-024D
Perigee: 317.9 km
Apogee: 531.5 km
Inclination: 50.3 °
Period: 92.9 minutes
Semi major axis: 6795 km
RCS: Unknown
Launch date: February 7, 2026
Source: People's Republic of China (PRC)
Launch site: Jiuquan Satellite Launch Center, China (JSC)

Note: This is SATELLITE DEBRIS
Your satellite tracking list
Your tracking list is empty




NASA's NSSDC Master Catalog

Two Line Element Set (TLE):
1 67692U 26024D   26102.61574659  .00333649  00000-0  34134-2 0  9993
2 67692  50.3118 209.0022 0157211  56.4997 305.0884 15.49713723  9843
Source of the keplerian elements: AFSPC